This is the latest recevied weather packets stored in our database for station/object EA1FBN. If no packets are shown the sender has not sent any weather packets the latest 10 day(s).
| Time | Temp. | Humidity | Pressure | Rain* | Wind** | Luminosity | Snow |
|---|---|---|---|---|---|---|---|
| 1777639529 | 20.56° C | 43% | 1019 hPa | 0 mm | - | - | - |
| 1777639229 | 20.56° C | 45% | 1018.9 hPa | 0 mm | - | - | - |
| 1777638629 | 19.44° C | 44% | 1019.1 hPa | 0 mm | - | - | - |
| 1777638329 | 20° C | 47% | 1019.2 hPa | 0 mm | - | - | - |
| 1777638029 | 20° C | 45% | 1019.2 hPa | 0 mm | - | - | - |
| 1777637729 | 20° C | 45% | 1019.3 hPa | 0 mm | - | - | - |
| 1777637429 | 19.44° C | 48% | 1019.3 hPa | 0 mm | - | - | - |
| 1777637129 | 19.44° C | 47% | 1019.2 hPa | 0 mm | - | - | - |
| 1777636829 | 19.44° C | 45% | 1019.3 hPa | 0 mm | - | - | - |
| 1777636529 | 19.44° C | 42% | 1019.4 hPa | 0 mm | - | - | - |
| 1777636229 | 19.44° C | 47% | 1019.3 hPa | 0 mm | - | - | - |
| 1777635929 | 19.44° C | 49% | 1019.5 hPa | 0 mm | - | - | - |
| 1777635629 | 19.44° C | 49% | 1019.5 hPa | 0 mm | - | - | - |
| 1777635029 | 18.89° C | 56% | 1019.5 hPa | 0 mm | - | - | - |
| 1777634729 | 18.89° C | 62% | 1019.5 hPa | 0 mm | - | - | - |
| 1777634429 | 18.33° C | 65% | 1019.5 hPa | 0 mm | - | - | - |
| 1777634129 | 18.33° C | 63% | 1019.5 hPa | 0 mm | - | - | - |
| 1777633829 | 18.33° C | 66% | 1019.5 hPa | 0 mm | - | - | - |
| 1777633529 | 17.78° C | 65% | 1019.5 hPa | 0 mm | - | - | - |
| 1777633229 | 18.33° C | 65% | 1019.5 hPa | 0 mm | - | - | - |
| 1777632929 | 17.78° C | 65% | 1019.5 hPa | 0 mm | - | - | - |
| 1777632629 | 17.78° C | 65% | 1019.6 hPa | 0 mm | - | - | - |
| 1777632329 | 17.78° C | 66% | 1019.6 hPa | 0 mm | - | - | - |
| 1777632029 | 17.78° C | 65% | 1019.8 hPa | 0 mm | - | - | - |
| 1777631429 | 17.78° C | 67% | 1019.7 hPa | 0 mm | - | - | - |
* Rain latest hour (hover to see other rain measurements)
** Current wind speed in m/s (hover to see current wind gust speed)